| time (UTC) | temp C | wind direction | speed KPH | gust KPH | rain 1hr cm | rain 24hr cm | rain mn cm | humidity % | barometer mb |
| 20260902142022 | 12 | 27 | 1.6 | 6.4 | 0.00 | 0.00 | 0.00 | 92 | 1011.9 |
| 20260902141028 | 12 | 356 | 1.6 | 4.8 | 0.00 | 0.00 | 0.00 | 91 | 1012.2 |
| 20260902140033 | 12 | 336 | 1.6 | 6.4 | 0.00 | 0.00 | 0.00 | 91 | 1012.2 |
| 20260902135019 | 13 | 352 | 3.2 | 8.0 | 0.00 | 0.00 | 0.00 | 89 | 1012.6 |
| 20260902134024 | 13 | 323 | 3.2 | 8.0 | 0.00 | 0.00 | 0.00 | 88 | 1012.9 |
| 20260902133030 | 13 | 286 | 6.4 | 12.9 | 0.00 | 0.00 | 0.00 | 86 | 1013.1 |
| 20260902132036 | 13 | 317 | 8.0 | 20.9 | 0.00 | 0.00 | 0.00 | 85 | 1013.3 |
| 20260902131034 | 13 | 325 | 6.4 | 12.9 | 0.00 | 0.00 | 0.00 | 86 | 1013.2 |
| 20260902130027 | 13 | 328 | 4.8 | 9.7 | 0.00 | 0.00 | 0.00 | 84 | 1013.2 |
| 20260902125021 | 14 | 305 | 6.4 | 9.7 | 0.00 | 0.00 | 0.00 | 81 | 1013.2 |
| 20260902123522 | 13 | 309 | 4.8 | 8.0 | 0.00 | 0.00 | 0.00 | 83 | 1013.0 |
| 20260902123036 | 12 | 297 | 1.6 | 4.8 | 0.00 | 0.00 | 0.00 | 85 | 1013.0 |
| 20260902120530 | 13 | 67 | 0.0 | 3.2 | 0.00 | 0.00 | 0.00 | 83 | 1013.2 |
| 20260902115531 | 13 | 151 | 0.0 | 1.6 | 0.00 | 0.00 | 0.00 | 82 | 1013.0 |
| 20260902114530 | 13 | 340 | 1.6 | 3.2 | 0.00 | 0.00 | 0.00 | 81 | 1013.1 |
| 20260902113519 | 13 | 138 | 1.6 | 1.6 | 0.00 | 0.00 | 0.00 | 81 | 1013.3 |
| 20260902113501 | 13 | 214 | 0.0 | 3.2 | 0.00 | 0.00 | 0.00 | 81 | 1013.3 |
| 20260902101048 | 17 | 295 | 8.0 | 11.3 | 0.00 | 0.00 | 0.00 | 75 | 1013.8 |
| 20260902100058 | 17 | 311 | 4.8 | 8.0 | 0.00 | 0.00 | 0.00 | 74 | 1013.5 |
| 20260902000537 | 17 | 314 | 9.7 | 19.3 | 0.00 | 0.00 | 0.00 | 67 | 1016.4 |
| 20260901234527 | 17 | 315 | 8.0 | 20.9 | 0.00 | 0.00 | 0.00 | 69 | 1016.2 |
| 20260901233524 | 16 | 315 | 8.0 | 16.1 | 0.00 | 0.00 | 0.00 | 70 | 1016.2 |
| 20260901231519 | 16 | 321 | 4.8 | 16.1 | 0.00 | 0.00 | 0.00 | 71 | 1016.0 |
| 20260901231030 | 16 | 337 | 9.7 | 20.9 | 0.00 | 0.00 | 0.00 | 71 | 1016.1 |
| 20260901225519 | 16 | 307 | 9.7 | 20.9 | 0.00 | 0.00 | 0.00 | 71 | 1016.2 |
| 20260901224526 | 15 | 304 | 14.5 | 16.1 | 0.00 | 0.00 | 0.00 | 72 | 1016.4 |
| 20260901224503 | 15 | 340 | 8.0 | 17.7 | 0.00 | 0.00 | 0.00 | 72 | 1016.4 |
| 20260901223531 | 15 | 331 | 4.8 | 6.4 | 0.00 | 0.00 | 0.00 | 73 | 1016.3 |
| 20260901223021 | 15 | 318 | 9.7 | 16.1 | 0.00 | 0.00 | 0.00 | 72 | 1016.3 |
| 20260901221530 | 15 | 308 | 11.3 | 20.9 | 0.00 | 0.00 | 0.00 | 73 | 1016.2 |
| 20260901220024 | 15 | 312 | 6.4 | 14.5 | 0.00 | 0.00 | 0.00 | 74 | 1016.1 |
| 20260901215034 | 15 | 316 | 6.4 | 20.9 | 0.00 | 0.00 | 0.00 | 74 | 1015.8 |
| 20260901214029 | 15 | 326 | 8.0 | 17.7 | 0.00 | 0.00 | 0.00 | 74 | 1015.7 |
| 20260901213030 | 15 | 307 | 6.4 | 17.7 | 0.00 | 0.00 | 0.00 | 74 | 1015.6 |
| 20260901212035 | 15 | 310 | 11.3 | 24.1 | 0.00 | 0.00 | 0.00 | 76 | 1015.4 |
| 20260901211018 | 14 | 305 | 8.0 | 19.3 | 0.00 | 0.00 | 0.00 | 78 | 1015.4 |
| 20260901210022 | 14 | 318 | 12.9 | 20.9 | 0.00 | 0.00 | 0.00 | 78 | 1015.4 |
| 20260901205034 | 13 | 314 | 9.7 | 20.9 | 0.00 | 0.00 | 0.00 | 79 | 1015.2 |
| 20260901204031 | 13 | 304 | 8.0 | 12.9 | 0.00 | 0.00 | 0.00 | 81 | 1015.3 |
| 20260901203034 | 13 | 312 | 6.4 | 12.9 | 0.00 | 0.00 | 0.00 | 83 | 1015.1 |
| 20260901202036 | 13 | 141 | 1.6 | 4.8 | 0.00 | 0.00 | 0.00 | 82 | 1015.2 |
| 20260901201019 | 13 | 7 | 1.6 | 4.8 | 0.00 | 0.00 | 0.00 | 81 | 1015.0 |
| 20260901200023 | 13 | 332 | 3.2 | 8.0 | 0.00 | 0.00 | 0.00 | 80 | 1015.0 |
| 20260901195026 | 14 | 317 | 6.4 | 11.3 | 0.00 | 0.00 | 0.00 | 80 | 1014.9 |
| 20260901194029 | 14 | 302 | 6.4 | 9.7 | 0.00 | 0.00 | 0.00 | 80 | 1014.8 |
| 20260901193033 | 14 | 308 | 4.8 | 12.9 | 0.00 | 0.00 | 0.00 | 80 | 1014.7 |
| 20260901192037 | 13 | 297 | 4.8 | 12.9 | 0.00 | 0.00 | 0.00 | 80 | 1014.7 |
| 20260901191027 | 14 | 314 | 6.4 | 17.7 | 0.00 | 0.00 | 0.00 | 80 | 1014.6 |
| 20260901190024 | 13 | 326 | 4.8 | 11.3 | 0.00 | 0.00 | 0.00 | 81 | 1014.7 |
| 20260901185027 | 13 | 330 | 3.2 | 14.5 | 0.00 | 0.00 | 0.00 | 81 | 1014.6 |
| 20260901184032 | 13 | 354 | 4.8 | 11.3 | 0.00 | 0.00 | 0.00 | 81 | 1014.5 |
| 20260901183035 | 13 | 16 | 4.8 | 11.3 | 0.00 | 0.00 | 0.00 | 81 | 1014.5 |
| 20260901182018 | 13 | 344 | 3.2 | 9.7 | 0.00 | 0.00 | 0.00 | 83 | 1015.0 |
| 20260901181035 | 13 | 358 | 4.8 | 11.3 | 0.00 | 0.00 | 0.00 | 84 | 1015.2 |
| 20260901180023 | 13 | 23 | 4.8 | 12.9 | 0.00 | 0.00 | 0.00 | 82 | 1015.1 |
| 20260901175030 | 13 | 5 | 4.8 | 9.7 | 0.00 | 0.00 | 0.00 | 82 | 1014.9 |
| 20260901174030 | 13 | 360 | 3.2 | 9.7 | 0.00 | 0.00 | 0.00 | 82 | 1014.9 |
| 20260901173034 | 13 | 17 | 3.2 | 9.7 | 0.00 | 0.00 | 0.00 | 82 | 1015.0 |
| 20260901172024 | 13 | 24 | 4.8 | 11.3 | 0.00 | 0.00 | 0.00 | 83 | 1014.9 |
| 20260901171020 | 14 | 41 | 3.2 | 9.7 | 0.00 | 0.00 | 0.00 | 80 | 1014.8 |
| 20260901170030 | 13 | 359 | 3.2 | 8.0 | 0.00 | 0.00 | 0.00 | 80 | 1015.9 |
| 20260901165026 | 13 | 27 | 1.6 | 8.0 | 0.00 | 0.00 | 0.00 | 81 | 1016.0 |
| 20260901164034 | 13 | 341 | 1.6 | 4.8 | 0.00 | 0.00 | 0.00 | 81 | 1016.0 |
| 20260901163022 | 13 | 321 | 1.6 | 3.2 | 0.00 | 0.00 | 0.00 | 81 | 1015.9 |
| 20260901162029 | 13 | 340 | 1.6 | 6.4 | 0.00 | 0.00 | 0.00 | 81 | 1016.0 |
| 20260901161038 | 14 | 2 | 3.2 | 6.4 | 0.00 | 0.00 | 0.00 | 79 | 1015.9 |
| 20260901160034 | 15 | 200 | 1.6 | 4.8 | 0.00 | 0.00 | 0.00 | 73 | 1015.7 |